Weather History for Whiteville, NC

Change the Weather History Date:

Tuesday, August 20, 2013

  Actual Average (KLBT) Record (KLBT)
Temperature  
Mean Temperature 80 °F 79 °F  
Max Temperature 86 °F 88 °F 100 °F (2007)
Min Temperature 73 °F 69 °F 68 °F (2008)
Degree Days  
Heating Degree Days 0 0  
Month to date heating degree days 0  
Since 1 June heating degree days 0  
Since 1 July heating degree days 0  
Cooling Degree Days 14 14  
Month to date cooling degree days 294  
Year to date cooling degree days 1432  
Since 1 June cooling degree days 1182  
Growing Degree Days 30 (Base 50)    
Moisture  
Dew Point 74 °F    
Average Humidity 92    
Maximum Humidity 98    
Minimum Humidity 66    
Precipitation  
Precipitation 0.53 in 0.18 in 1.72 in (2012)
Month to date precipitation 3.65  
Year to date precipitation 28.54  
Sea Level Pressure  
Sea Level Pressure 30.13 in    
Wind  
Wind Speed 1 mph (ENE)    
Max Wind Speed 9 mph    
Max Gust Speed -    
Visibility 6 miles    
Events Fog , Rain    
T = Trace of Precipitation, MM = Missing Value Source: NWS Daily Summary

Daily Weather History Graph

Daily Weather History Graph

Search for Another Location

Airport:

Trip Planner

Search our weather history database for the weather conditions in past years. The results will help you decide how hot, cold, wet, or windy it might be!

Date:

Astronomy

Aug. 20, 2013 Rise Set
Actual Time 6:39 AM EDT 7:55 PM EDT
Civil Twilight 6:13 AM EDT 8:22 PM EDT
Nautical Twilight 5:42 AM EDT 8:53 PM EDT
Astronomical Twilight 5:09 AM EDT 9:25 PM EDT
Moon 7:29 PM EDT (8/20) 6:06 AM EDT (8/20)
Length of Visible Light 14h 08m
Length of Day
13h 16m
Full, 100% of the Moon is Illuminated
Aug 20
Full
Aug 20
Full
Aug 28
Last Quarter
Sep 5
New
Sep 12
First Quarter

Hourly Weather History & Observations

Time (EDT) Temp. Heat Index Dew Point Humidity Pressure Visibility Wind Dir Wind Speed Gust Speed Precip Events Conditions
12:15 AM 74.5 °F - 73.4 °F 96% 30.11 in 7.0 mi Calm Calm - N/A   Overcast
12:35 AM 74.7 °F - 73.4 °F 96% 30.11 in 7.0 mi Calm Calm - N/A   Overcast
12:55 AM 74.7 °F - 73.4 °F 96% 30.11 in 7.0 mi Calm Calm - N/A   Overcast
1:15 AM 74.8 °F - 73.4 °F 95% 30.11 in 7.0 mi Calm Calm - N/A   Overcast
1:35 AM 74.8 °F - 73.4 °F 95% 30.10 in 7.0 mi Calm Calm - N/A   Overcast
1:55 AM 74.7 °F - 73.4 °F 96% 30.10 in 5.0 mi Calm Calm - N/A   Overcast
2:15 AM 74.7 °F - 73.4 °F 96% 30.10 in 5.0 mi Calm Calm - N/A   Overcast
2:35 AM 74.5 °F - 73.4 °F 96% 30.09 in 4.0 mi ENE 3.5 mph - N/A   Overcast
2:55 AM 74.3 °F - 73.4 °F 97% 30.10 in 2.5 mi NE 3.5 mph - N/A   Overcast
3:15 AM 74.3 °F - 73.2 °F 96% 30.10 in 2.5 mi Calm Calm - N/A   Overcast
3:35 AM 73.9 °F - 73.0 °F 97% 30.09 in 3.0 mi Calm Calm - N/A   Overcast
3:55 AM 73.9 °F - 72.9 °F 96% 30.09 in 3.0 mi Calm Calm - N/A   Overcast
4:15 AM 73.9 °F - 73.0 °F 97% 30.09 in 3.0 mi Calm Calm - N/A   Overcast
4:35 AM 73.8 °F - 72.9 °F 97% 30.09 in 3.0 mi Calm Calm - N/A Rain Light Rain
4:55 AM 73.9 °F - 73.0 °F 97% 30.09 in 3.0 mi Calm Calm - N/A   Overcast
5:15 AM 73.9 °F - 73.0 °F 97% 30.09 in 3.0 mi Calm Calm - N/A   Overcast
5:35 AM 73.8 °F - 72.9 °F 97% 30.10 in 2.5 mi ENE 3.5 mph - 0.05 in Rain Heavy Rain
5:55 AM 73.8 °F - 72.9 °F 97% 30.10 in 3.0 mi Calm Calm - 0.07 in Rain Rain
6:15 AM 73.6 °F - 72.7 °F 97% 30.10 in 5.0 mi Calm Calm - N/A   Overcast
6:35 AM 73.6 °F - 72.7 °F 97% 30.11 in 1.8 mi Calm Calm - N/A   Overcast
6:55 AM 73.6 °F - 72.7 °F 97% 30.11 in 0.2 mi Calm Calm - N/A Fog Fog
7:15 AM 73.6 °F - 72.7 °F 97% 30.12 in 0.2 mi Calm Calm - N/A Fog Fog
7:35 AM 73.8 °F - 72.9 °F 97% 30.12 in 0.2 mi Calm Calm - N/A Fog Fog
7:55 AM 73.9 °F - 73.2 °F 98% 30.13 in 0.2 mi Calm Calm - N/A Fog Fog
8:15 AM 73.9 °F - 73.4 °F 98% 30.13 in 0.2 mi Calm Calm - N/A Fog Fog
8:35 AM 74.1 °F - 73.4 °F 98% 30.14 in 0.5 mi Calm Calm - N/A Fog Fog
8:55 AM 74.3 °F - 73.4 °F 97% 30.14 in 0.2 mi Calm Calm - N/A Fog Fog
9:15 AM 74.5 °F - 73.8 °F 98% 30.15 in 0.5 mi Calm Calm - N/A Fog Fog
9:35 AM 75.0 °F - 74.1 °F 97% 30.15 in 1.0 mi Calm Calm - N/A   Overcast
9:55 AM 75.4 °F - 74.5 °F 97% 30.15 in 5.0 mi Calm Calm - N/A   Overcast
10:15 AM 76.5 °F - 75.0 °F 95% 30.16 in 7.0 mi Calm Calm - N/A   Overcast
10:35 AM 77.0 °F - 74.5 °F 92% 30.16 in 10.0 mi Calm Calm - N/A   Overcast
10:55 AM 78.3 °F - 74.7 °F 89% 30.17 in 10.0 mi Calm Calm - N/A   Overcast
11:15 AM 79.9 °F - 74.8 °F 85% 30.17 in 10.0 mi Calm Calm - N/A   Mostly Cloudy
11:35 AM 81.3 °F 87.4 °F 74.8 °F 81% 30.16 in 10.0 mi Calm Calm - N/A   Mostly Cloudy
11:55 AM 82.4 °F 89.0 °F 74.5 °F 77% 30.16 in 10.0 mi Calm Calm - N/A   Scattered Clouds
12:15 PM 81.9 °F 88.0 °F 74.3 °F 78% 30.16 in 10.0 mi Calm Calm - N/A   Scattered Clouds
12:35 PM 84.4 °F 91.0 °F 73.0 °F 69% 30.16 in 10.0 mi Calm Calm - N/A   Scattered Clouds
12:55 PM 84.9 °F 92.5 °F 74.3 °F 70% 30.16 in 10.0 mi Calm Calm - N/A   Scattered Clouds
1:15 PM 84.9 °F 92.1 °F 73.6 °F 69% 30.15 in 10.0 mi Calm Calm - N/A   Scattered Clouds
1:35 PM 84.6 °F 92.4 °F 74.5 °F 72% 30.15 in 10.0 mi Calm Calm - N/A   Scattered Clouds
1:55 PM 86.9 °F 95.4 °F 74.5 °F 66% 30.15 in 10.0 mi East 4.6 mph - N/A   Mostly Cloudy
2:15 PM 85.3 °F 93.4 °F 74.3 °F 70% 30.14 in 10.0 mi Calm Calm - N/A   Mostly Cloudy
2:35 PM 85.1 °F 92.9 °F 74.3 °F 70% 30.13 in 10.0 mi ESE 6.9 mph - N/A   Overcast
2:55 PM 79.7 °F - 76.1 °F 89% 30.13 in 10.0 mi Calm Calm - 0.01 in Rain Light Rain
3:15 PM 76.5 °F - 73.0 °F 89% 30.13 in 5.0 mi SSE 9.2 mph - 0.05 in Rain Heavy Rain
3:35 PM 75.2 °F - 73.2 °F 94% 30.12 in 1.8 mi South 4.6 mph - 0.43 in Rain Rain
3:55 PM 75.7 °F - 74.3 °F 95% 30.12 in 7.0 mi Calm Calm - 0.43 in Rain Light Rain
4:15 PM 77.2 °F - 75.2 °F 94% 30.11 in 10.0 mi Calm Calm - N/A   Scattered Clouds
4:35 PM 77.5 °F - 74.3 °F 90% 30.11 in 10.0 mi Calm Calm - N/A Rain Light Rain
4:55 PM 77.0 °F - 74.7 °F 92% 30.11 in 10.0 mi Calm Calm - 0.01 in Rain Light Rain
5:15 PM 77.2 °F - 74.3 °F 91% 30.11 in 10.0 mi Calm Calm - N/A Rain Light Rain
5:35 PM 77.0 °F - 75.2 °F 94% 30.14 in 10.0 mi Calm Calm - N/A Rain Light Rain
5:55 PM 77.0 °F - 75.4 °F 95% 30.13 in 7.0 mi Calm Calm - 0.01 in Rain Light Rain
6:15 PM 77.0 °F - 75.2 °F 94% 30.14 in 10.0 mi East 6.9 mph - N/A   Overcast
6:35 PM 76.6 °F - 74.1 °F 92% 30.14 in 10.0 mi NE 3.5 mph - N/A   Overcast
6:55 PM 75.6 °F - 73.6 °F 94% 30.14 in 10.0 mi Calm Calm - N/A   Mostly Cloudy
7:15 PM 75.6 °F - 73.6 °F 94% 30.15 in 10.0 mi Calm Calm - N/A   Mostly Cloudy
7:35 PM 75.2 °F - 73.4 °F 94% 30.15 in 10.0 mi Calm Calm - N/A   Mostly Cloudy
7:55 PM 75.2 °F - 73.2 °F 94% 30.13 in 10.0 mi Calm Calm - N/A   Scattered Clouds
8:15 PM 74.7 °F - 73.2 °F 95% 30.14 in 10.0 mi Calm Calm - N/A   Clear
8:35 PM 74.1 °F - 72.7 °F 95% 30.14 in 7.0 mi Calm Calm - N/A   Clear
8:55 PM 73.8 °F - 72.5 °F 96% 30.15 in 10.0 mi NNE 3.5 mph - N/A   Scattered Clouds
9:15 PM 73.9 °F - 72.7 °F 96% 30.15 in 10.0 mi Calm Calm - N/A   Mostly Cloudy
9:35 PM 73.8 °F - 72.5 °F 96% 30.15 in 7.0 mi Calm Calm - N/A   Mostly Cloudy
9:55 PM 73.8 °F - 72.5 °F 96% 30.15 in 10.0 mi Calm Calm - N/A   Scattered Clouds
10:15 PM 73.6 °F - 72.5 °F 96% 30.16 in 7.0 mi Calm Calm - N/A   Clear
10:35 PM 73.4 °F - 72.1 °F 96% 30.17 in 5.0 mi Calm Calm - N/A   Clear
10:55 PM 73.2 °F - 72.0 °F 96% 30.17 in 5.0 mi Calm Calm - N/A   Mostly Cloudy
11:15 PM 73.4 °F - 72.5 °F 97% 30.18 in 1.2 mi NE 3.5 mph - N/A   Overcast
11:35 PM 73.4 °F - 72.5 °F 97% 30.18 in 0.2 mi Calm Calm - N/A Fog Fog
11:55 PM 73.4 °F - 72.5 °F 97% 30.19 in 0.5 mi Calm Calm - N/A Fog Fog